Content
SEND FEEDBACK

Daily
Averages
Monthly
Summary
United States of America

CYPRESS MILL, TEXAS


Home > North America > United States > Texas
Elevation: 920 feet     Latitude: 30 23N     Longitude: 098 15W

WEATHER
 
SELECT A DAY
Number of Records: 121,788;   Date Range: 6/5/09 - 9/17/14
 
SHARE

PRINT THIS DATA

[ ← Previous Day ]
WEATHER ALMANAC - FEBRUARY 1, 2013
[ Next Day → ]
[ °C ]   °F
Weather ElementAverageHighLow
Temperature53.7 °F69.8 °F (1:15 pm)33.8 °F (5:55 am)
Dewpoint32 °F39.2 °F (11:35 pm)26.6 °F (12:35 am)
Humidity46.8 %81 % (5:35 am)25 % (1:15 pm)
Barometer30.24 in30.34 in (7:55 am)30.15 in (5:15 pm)
Wind Speed5 mph12.7 mph (1:35 pm)
Wind Gust21.9 mph (12:55 pm)
Weather ElementAverage
Visibility10 mi
Wind DirectionESE (112 °)

Weather ElementTotal
Precipitation---
Heating Degree Days13.2 (Base 65)
Growing Degree Days1.8 (Base 50)
Averaged from 69 records on February 1, 2013
WEATHER CONDITIONS BREAKOUT
WIND DIRECTION BREAKOUT
WEATHER BY HOUR - FEBRUARY 1, 2013
[ °C ]   °F
Local TimeTemperatureDewpointHumidityBarometerVisibilityWind DirectionWind SpeedGust SpeedPrecipitationEventsConditions
12:35 AM42.8 °F26.6 °F53 %30.27 in10.0 miCalmClear
12:55 AM42.8 °F26.6 °F53 %30.27 in10.0 miCalmClear
1:15 AM42.8 °F26.6 °F53 %30.26 in10.0 miSE (140°)4.6 mphClear
1:35 AM42.8 °F28.4 °F57 %30.26 in10.0 miCalmClear
1:55 AM41.0 °F28.4 °F61 %30.26 in10.0 miCalmClear
2:15 AM41.0 °F30.2 °F65 %30.27 in10.0 miCalmClear
2:35 AM42.8 °F28.4 °F57 %30.27 in10.0 miCalmClear
2:55 AM41.0 °F30.2 °F65 %30.27 in10.0 miCalmClear
3:15 AM41.0 °F28.4 °F61 %30.27 in10.0 miCalmClear
3:35 AM42.8 °F32.0 °F66 %30.29 in10.0 miCalmClear
3:55 AM41.0 °F32.0 °F70 %30.29 in10.0 miSouth (190°)3.5 mphClear
4:15 AM41.0 °F30.2 °F65 %30.28 in10.0 miCalmClear
4:35 AM41.0 °F30.2 °F65 %30.29 in10.0 miCalmClear
4:55 AM39.2 °F30.2 °F70 %30.29 in10.0 miCalmClear
5:35 AM35.6 °F30.2 °F81 %30.32 in10.0 miCalmClear
5:55 AM33.8 °F28.4 °F81 %30.31 in10.0 miCalmClear
6:15 AM33.8 °F28.4 °F81 %30.32 in10.0 miCalmClear
6:55 AM33.8 °F28.4 °F81 %30.33 in10.0 miSouth (190°)3.5 mphClear
7:15 AM35.6 °F28.4 °F75 %30.33 in10.0 miCalmClear
7:35 AM42.8 °F30.2 °F61 %30.33 in10.0 miCalmClear
7:55 AM44.6 °F30.2 °F57 %30.34 in10.0 miCalmClear
8:15 AM46.4 °F30.2 °F53 %30.34 in10.0 miCalmClear
8:35 AM46.4 °F32.0 °F57 %30.33 in10.0 miCalmClear
8:55 AM50.0 °F30.2 °F47 %30.33 in10.0 miCalmClear
9:15 AM51.8 °F30.2 °F44 %30.33 in10.0 miCalmClear
9:35 AM53.6 °F32.0 °F44 %30.33 in10.0 miCalmClear
9:55 AM55.4 °F32.0 °F41 %30.32 in10.0 miCalmClear
10:15 AM60.8 °F33.8 °F36 %30.31 in10.0 miCalmClear
10:35 AM62.6 °F33.8 °F34 %30.31 in10.0 miWest (260°)3.5 mphClear
10:55 AM62.6 °F35.6 °F37 %30.30 in10.0 miNNW (340°)3.5 mphClear
11:15 AM64.4 °F37.4 °F37 %30.28 in10.0 miSSW (200°)9.2 mphClear
11:35 AM64.4 °F37.4 °F37 %30.27 in10.0 miSouth (190°)8.1 mph16.1 mphClear
11:55 AM68.0 °F37.4 °F33 %30.26 in10.0 miSSW (200°)6.9 mphClear
12:15 PM68.0 °F32.0 °F26 %30.24 in10.0 miSouth (190°)11.5 mph19.6 mphClear
12:35 PM68.0 °F33.8 °F28 %30.23 in10.0 miSouth (170°)11.5 mph17.3 mphClear
12:55 PM68.0 °F33.8 °F28 %30.22 in10.0 miSouth (180°)9.2 mph21.9 mphClear
1:15 PM69.8 °F32.0 °F25 %30.21 in10.0 miSouth (190°)9.2 mph16.1 mphClear
1:35 PM69.8 °F32.0 °F25 %30.21 in10.0 miSouth (180°)12.7 mph21.9 mphClear
1:55 PM69.8 °F32.0 °F25 %30.20 in10.0 miSouth (170°)12.7 mph20.7 mphClear
2:15 PM68.0 °F32.0 °F26 %30.19 in10.0 miSouth (180°)11.5 mph19.6 mphClear
2:35 PM69.8 °F32.0 °F25 %30.19 in10.0 miSouth (180°)6.9 mphClear
2:55 PM69.8 °F32.0 °F25 %30.18 in10.0 miSouth (180°)9.2 mph20.7 mphClear
3:15 PM69.8 °F32.0 °F25 %30.18 in10.0 miSouth (190°)10.4 mph18.4 mphClear
3:35 PM68.0 °F32.0 °F26 %30.18 in10.0 miSouth (190°)10.4 mph16.1 mphClear
3:55 PM68.0 °F32.0 °F26 %30.18 in10.0 miSouth (180°)11.5 mph20.7 mphClear
4:15 PM68.0 °F32.0 °F26 %30.17 in10.0 miSouth (180°)10.4 mph16.1 mphClear
4:35 PM66.2 °F32.0 °F28 %30.17 in10.0 miSouth (180°)10.4 mph20.7 mphClear
4:55 PM64.4 °F32.0 °F30 %30.16 in10.0 miSouth (190°)6.9 mphClear
5:15 PM62.6 °F32.0 °F32 %30.15 in10.0 miSouth (190°)6.9 mphClear
5:35 PM62.6 °F32.0 °F32 %30.15 in10.0 miSouth (180°)5.8 mphClear
5:55 PM60.8 °F32.0 °F34 %30.15 in10.0 miSouth (180°)3.5 mphClear
6:15 PM59.0 °F32.0 °F36 %30.16 in10.0 miSouth (170°)3.5 mphClear
6:35 PM53.6 °F32.0 °F44 %30.17 in10.0 miCalmClear
6:55 PM50.0 °F32.0 °F50 %30.17 in10.0 miCalmClear
7:15 PM50.0 °F32.0 °F50 %30.17 in10.0 miSouth (170°)3.5 mphClear
7:35 PM53.6 °F32.0 °F44 %30.17 in10.0 miSSE (160°)4.6 mphClear
7:55 PM53.6 °F33.8 °F47 %30.18 in10.0 miSSE (160°)6.9 mphClear
8:15 PM55.4 °F32.0 °F41 %30.19 in10.0 miSSE (160°)8.1 mphClear
8:35 PM55.4 °F32.0 °F41 %30.19 in10.0 miSouth (170°)8.1 mphClear
8:55 PM53.6 °F32.0 °F44 %30.19 in10.0 miSouth (170°)8.1 mphClear
9:15 PM53.6 °F32.0 °F44 %30.19 in10.0 miSouth (170°)8.1 mphClear
9:35 PM53.6 °F32.0 °F44 %30.19 in10.0 miSouth (180°)8.1 mphClear
9:55 PM53.6 °F33.8 °F47 %30.19 in10.0 miSouth (170°)9.2 mphClear
10:15 PM53.6 °F35.6 °F51 %30.18 in10.0 miSouth (170°)10.4 mph17.3 mphClear
10:35 PM53.6 °F35.6 °F51 %30.18 in10.0 miSouth (170°)10.4 mph17.3 mphClear
10:55 PM53.6 °F37.4 °F54 %30.18 in10.0 miSouth (170°)11.5 mph16.1 mphClear
11:15 PM53.6 °F37.4 °F54 %30.17 in10.0 miSouth (180°)10.4 mph17.3 mphClear
11:35 PM53.6 °F39.2 °F58 %30.16 in10.0 miSouth (180°)12.7 mph19.6 mphClear
11:55 PM51.8 °F39.2 °F62 %30.15 in10.0 miSouth (190°)6.9 mph17.3 mphClear
Hourly data recorded from KDZB, located miles away from Cypress Mill, Texas







STORIES FROM OUR PARTNERS